Regional Weather Roundup
Issued by NWS San Angelo, TX

Home | Current Version | Previous Version | Text Only | Print | Product List | Glossary On
Versions: 1 2 3 4 5 6 7 8 9 10 11 12 13 14 15 16 17 18 19 20 21 22 23 24 25 26 27 28 29 30 31 32 33 34 35 36 37 38 39 40 41 42 43 44 45 46 47 48 49 50
000
ASUS44 KSJT 300311
RWRSJT
WEST CENTRAL TEXAS REGIONAL WEATHER ROUNDUP
NATIONAL WEATHER SERVICE SAN ANGELO TX
1000 PM CDT MON AUG 29 2016

NOTE: "FAIR" INDICATES FEW OR NO CLOUDS BELOW 12,000 FEET WITH NO
SIGNIFICANT WEATHER AND/OR OBSTRUCTIONS TO VISIBILITY.

TXZ049-054-064>066-071>073-076>078-098-099-113-114-127-128-139-140-
154-155-168>170-300400
...LOCATIONS ACROSS WEST CENTRAL TEXAS...

CITY           SKY/WX    TMP DP  RH WIND       PRES   REMARKS
SAN ANGELO     CLOUDY    78  67  68 E7        30.07R
ABILENE        CLOUDY    76  69  79 E6        30.11R
DYESS AFB      CLOUDY    78  68  72 E8        30.10R
JUNCTION       MOCLDY    80  68  66 NE9       30.05R
SWEETWATER     CLOUDY    78  65  65 E8        30.15R
BROWNWOOD      MOCLDY    77  68  73 E8        30.09R
COLEMAN        MOCLDY    77  67  72 E5        30.09R
SONORA         MOCLDY    79  68  69 VRB3      30.11R
OZONA          FAIR      75  66  73 CALM      30.11R
BRADY          NOT AVBL
$$

TEXAS PANHANDLE/OKLAHOMA PANHANDLE

CITY           SKY/WX    TMP DP  RH WIND       PRES   REMARKS
AMARILLO       LGT RAIN  66  64  93 E8        30.26R
BORGER         LGT RAIN  69  67  93 SE6       30.25R
CANADIAN       CLOUDY    72  69  91 CALM      30.20R
DALHART        CLOUDY    67  62  84 CALM      30.28R
DUMAS          CLOUDY    65  63  93 CALM      30.27R
GUYMON         NOT AVBL
HEREFORD       CLOUDY    67  65  94 E8        30.26R
PAMPA          TSTM      67  65  94 CALM      30.27R
PERRYTON       CLOUDY    71  69  94 CALM      30.23R
$$

SOUTHERN PANHANDLE/SOUTH PLAINS/ROLLING PLAINS

CITY           SKY/WX    TMP DP  RH WIND       PRES   REMARKS
LUBBOCK        CLOUDY    67  65  93 NE12      30.20R
SNYDER           N/A     78  63  59 E9        30.14R
CHILDRESS      CLOUDY    73  69  87 N10       30.14R
SEMINOLE       MOCLDY    68  66  94 NE8       30.20R
$$

PERMIAN BASIN

CITY           SKY/WX    TMP DP  RH WIND       PRES   REMARKS
MIDLAND        CLOUDY    71  68  90 N7        30.13R
ODESSA         CLOUDY    71  67  87 NE9       30.15R
WINK           MOCLDY    73  63  70 E7        30.13R
$$

FAR WEST/SOUTHWEST MOUNTAINS/TRANS PECOS

CITY           SKY/WX    TMP DP  RH WIND       PRES   REMARKS
ALPINE         PTCLDY    65  63  91 N5        30.26R
DRYDEN           N/A     73  68  84 N8        30.05R
EL PASO        MOCLDY    78  57  48 E12       30.12R
FORT STOCKTON  CLOUDY    69  67  93 S3        30.13R
GUADALUPE PASS NOT AVBL
MARFA          CLOUDY   N/A N/A N/A NE6       30.23R
PECOS          MOCLDY    71  68  90 NE5       30.13R
$$

DALLAS/FORT WORTH METROPLEX

CITY           SKY/WX    TMP DP  RH WIND       PRES   REMARKS
DFW AIRPORT    PTCLDY    80  73  79 CALM      30.04R
FTW MEACHAM    CLOUDY    80  74  81 N3        30.05R
DAL-EXECUTIVE  MOCLDY    77  75  93 E5        30.04R
GRAND PRAIRIE  MOCLDY    80  72  77 CALM      30.06R
ADDISON        PTCLDY    84  72  65 E9        30.05R
MESQUITE       MOCLDY    78  71  81 SE3       30.04R
LANCASTER        N/A     78  73  83 CALM      30.05R HAZE
$$

NORTH CENTRAL TEXAS

CITY           SKY/WX    TMP DP  RH WIND       PRES   REMARKS
SHRMAN/DENISON CLOUDY    80  71  72 CALM      30.07R
GAINESVILLE      N/A     81  69  68 E6        30.09R
BRIDGEPORT     CLEAR     76  75  98 CALM      30.08R
DENTON         MOCLDY    78  70  76 E3        30.05R
WAXAHACHIE     CLOUDY    77  72  83 CALM      30.05R
GRANBURY       CLOUDY    80  71  75 CALM      30.07R
$$

WESTERN NORTH TEXAS

CITY           SKY/WX    TMP DP  RH WIND       PRES   REMARKS
WICHITA FALLS  PTCLDY    80  66  62 E8        30.08R
VERNON         CLOUDY    79  63  57 E8        30.10R
BRECKENRIDGE   MOCLDY    78  68  71 SE3       30.08R
COMANCHE       CLOUDY    76  68  77 SE7       30.09R
$$

CENTRAL AND SOUTH CENTRAL TEXAS

CITY           SKY/WX    TMP DP  RH WIND       PRES   REMARKS
AUSTIN/BERGSTM CLOUDY    75  73  93 NE7       30.00R
WACO           CLOUDY    76  74  93 N7        30.04R
HILLSBORO      MOCLDY    76  71  85 CALM      30.04R
TEMPLE         MOCLDY    75  73  93 N3        30.04R
KILLEEN-GRAY   CLOUDY    75  73  94 NW3       30.04R
FORT HOOD      CLOUDY    73  70  91 N6        30.02R
GEORGETOWN     CLOUDY    73  70  88 NE5       30.03R
LAGO VISTA     FAIR      73  71  95 NE8       30.04R
SAN MARCOS     CLOUDY    73  72  94 NE10      30.02S
NEW BRAUNFELS  CLOUDY    76  72  87 NE10      29.98R
RANDOLPH AFB   MOCLDY    75  75 100 NE6       29.98R
SAN ANTONIO    PTCLDY    76  72  87 NE6       29.99R
STINSON        PTCLDY    77  72  84 NE10      29.96R
PLEASANTON     NOT AVBL
LA GRANGE      CLEAR     77  74  91 CALM      29.97R
GIDDINGS       CLEAR     74  72  93 N3        30.04R
$$

EAST TEXAS

CITY           SKY/WX    TMP DP  RH WIND       PRES   REMARKS
PARIS          PTCLDY    79  72  78 CALM      30.05S
CLARKSVILLE    NOT AVBL
TYLER          CLOUDY    78  70  76 S5        30.04R
LONGVIEW       CLOUDY    73  72  96 S3        30.02S
PALESTINE      RAIN      73  71  94 NE5       30.04R
NACOGDOCHES    CLOUDY   N/A N/A N/A S5        29.99F
$$

TEXAS HILL COUNTRY AND EDWARDS PLATEAU

CITY           SKY/WX    TMP DP  RH WIND       PRES   REMARKS
LLANO          CLOUDY    75  75 100 E6        30.09R
HORSESHOE BAY  FAIR      74  71  91 CALM      30.04R
KERRVILLE      PTCLDY    74  71  89 E8        30.05R
FREDERICKSBRG  MOCLDY    73  67  83 E6        30.06R
ROCKSPRINGS    MOCLDY    77  64  65 E3        30.09R
HONDO          PTCLDY    78  71  79 E12       29.99R
UVALDE         MOCLDY    77  71  81 SE12      29.99R HAZE
DEL RIO        CLOUDY    76  74  93 CALM      29.98R
$$

SOUTHEAST TEXAS

CITY           SKY/WX    TMP DP  RH WIND       PRES   REMARKS
COLLEGE STN    PTCLDY    77  75  93 NE6       30.00R
CALDWELL       PTCLDY    73  73 100 CALM      30.03S
CROCKETT       CLOUDY    72  70  94 NE3       30.04S
BRENHAM        CLOUDY    76  75  95 N3        30.00R
HUNTSVILLE     CLOUDY    75  71  87 CALM      30.01R
CONROE         PTCLDY    75  72  90 NE5       29.99R
HOUSTON BUSH   CLOUDY    77  72  84 NE8       29.97R
HOUSTON HOBBY  CLOUDY    79  75  87 NE6       29.95R
PERLAND        MOCLDY    81  75  82 NE3       29.97R
WHARTON        PTCLDY    77  74  90 N3        29.96R
$$

THE UPPER TEXAS COAST

CITY           SKY/WX    TMP DP  RH WIND       PRES   REMARKS
ORANGE         CLOUDY    76  74  94 CALM      29.99R
PORT ARTHUR    CLEAR     78  75  90 CALM      29.97R
GALVESTON      CLOUDY    82  77  84 NE12      29.95R
ANGLETON       LGT RAIN  79  77  94 N7        29.94R
BAY CITY       MOCLDY    79  75  90 NE7       29.94R
$$

TEXAS COASTAL BEND, RIO GRANDE PLAINS DEEP SOUTH TEXAS

CITY           SKY/WX    TMP DP  RH WIND       PRES   REMARKS
VICTORIA       PTCLDY    76  74  93 NE7       29.94R
BEEVILLE       FAIR      78  75  92 NE9       29.92S
ROCKPORT       NOT AVBL
PORT ARANSAS   PTCLDY    83  76  80 NE12G18   29.88S
PORT LAVACA    PTCLDY    78  76  91 NE7       29.92S
CORPUS CHRISTI PTCLDY    81  77  88 NE10      29.89R
KINGSVILLE NAS MOCLDY    79  76  90 N5        29.89R
COTULLA        PTCLDY    81  72  74 E7        29.95R
LAREDO         PTCLDY    84  71  65 NE12      29.92R
BROWNSVILLE    CLEAR     81  75  82 E3        29.87R
PORT ISABEL    CLEAR     82  75  79 NE5       29.86R
HEBBRONVILLE   CLEAR     79  72  78 NE7       29.93R
MCALLEN        CLEAR     87  72  60 NE13      29.88R
WESLACO        CLEAR    N/A N/A N/A NE7       29.88R
FALFURRIAS     PTCLDY    81  73  78 NE3       29.89R
EDINBURG       CLEAR     84  72  67 NE6       29.89R
$$




USA.gov is the U.S. government's official web portal to all federal, state and local government web resources and services.